Galena, AK

1:54 PM AKST on February 19, 2017 (GMT -0900)
Pitka

Weather History for PAGA - June, 2013

Change the Weather History Date:

Thursday, June 20, 2013

  Actual Average Record
Temperature  
Mean Temperature 68 °F -  
Max Temperature 73 °F 67 °F 87 °F (1991)
Min Temperature 63 °F 51 °F 7 °F (1999)
Cooling Degree Days 3    
Growing Degree Days 18 (Base 50)    
Moisture  
Dew Point 47 °F    
Average Humidity 46    
Maximum Humidity 70    
Minimum Humidity 33    
Precipitation  
Precipitation 0.00 in - - ()
Sea Level Pressure  
Sea Level Pressure 29.89 in    
Wind  
Wind Speed 9 mph (WSW)    
Max Wind Speed 16 mph    
Max Gust Speed 18 mph    
Visibility 10 miles    
Events      
Averages and records for this station are not official NWS values.
T = Trace of Precipitation, MM = Missing Value Source: NWS Daily Summary

Daily Weather History Graph

Daily Weather History Graph

Search for Another Location

Airport or City:

Trip Planner

Search our weather history database for the weather conditions in past years. The results will help you decide how hot, cold, wet, or windy it might be!

Date:

Astronomy

Jun. 20, 2013 Rise Set
Actual Time 3:37 AM AKDT 1:21 AM AKDT
Civil Twilight Sun does not rise Sun does not rise
Nautical Twilight Sun does not rise Sun does not rise
Astronomical Twilight Sun does not rise Sun does not rise
Moon 9:19 PM AKDT (6/20) 2:49 AM AKDT (6/20)
Length of Visible Light 24h 00m
Length of Day
21h 43m
Waxing Gibbous, 90% of the Moon is Illuminated
Jun 20
Waxing Gibbous
Jun 23
Full
Jun 29
Last Quarter
Jul 7
New
Jul 15
First Quarter

Hourly Weather History & Observations

Time (AKDT) Temp. Dew Point Humidity Pressure Visibility Wind Dir Wind Speed Gust Speed Precip Events Conditions
12:58 AM 73.9 °F 43.0 °F 33% 29.78 in 10.0 mi SSE 13.8 mph - N/A   Clear
1:58 AM 72.0 °F 42.1 °F 34% 29.80 in 10.0 mi South 11.5 mph 18.4 mph N/A   Clear
2:58 AM 64.9 °F 50.0 °F 58% 29.83 in 10.0 mi SSW 6.9 mph - N/A   Clear
3:58 AM 64.0 °F 48.0 °F 56% 29.86 in 10.0 mi SSW 5.8 mph - N/A   Clear
4:58 AM 63.0 °F 50.0 °F 63% 29.88 in 10.0 mi ESE 3.5 mph - N/A   Clear
5:58 AM 63.0 °F 48.0 °F 58% 29.90 in 10.0 mi South 5.8 mph - N/A   Clear
6:58 AM 63.0 °F 46.0 °F 54% 29.91 in 10.0 mi SSW 8.1 mph - N/A   Clear
7:58 AM 64.0 °F 46.0 °F 52% 29.93 in 10.0 mi SW 9.2 mph - N/A   Clear
8:58 AM 64.9 °F 45.0 °F 48% 29.93 in 10.0 mi WSW 16.1 mph - N/A   Clear
9:58 AM 66.0 °F 45.0 °F 47% 29.94 in 10.0 mi WSW 10.4 mph - N/A   Clear
10:58 AM 66.9 °F 45.0 °F 45% 29.94 in 10.0 mi WSW 10.4 mph - N/A   Clear
11:58 AM 69.1 °F 45.0 °F 42% 29.94 in 10.0 mi West 8.1 mph - N/A   Clear
12:58 PM 71.1 °F 45.0 °F 39% 29.93 in 10.0 mi West 4.6 mph - N/A   Clear
1:58 PM 71.1 °F 45.0 °F 39% 29.93 in 10.0 mi West 8.1 mph - N/A   Clear
2:58 PM 73.0 °F 45.0 °F 37% 29.92 in 10.0 mi Variable 3.5 mph - N/A   Clear
3:58 PM 73.9 °F 45.0 °F 35% 29.91 in 10.0 mi West 4.6 mph - N/A   Scattered Clouds
4:58 PM 73.9 °F 46.0 °F 37% 29.90 in 10.0 mi West 8.1 mph - N/A   Clear
5:58 PM 73.9 °F 45.0 °F 35% 29.88 in 10.0 mi West 8.1 mph - N/A   Clear
6:58 PM 73.0 °F 46.0 °F 38% 29.88 in 10.0 mi WNW 5.8 mph - N/A   Clear
7:58 PM 73.0 °F 45.0 °F 37% 29.88 in 9.0 mi NNW 4.6 mph - N/A   Clear
10:58 PM 66.0 °F 54.0 °F 65% 29.88 in 10.0 mi WSW 6.9 mph - N/A   Overcast
11:58 PM 64.0 °F 54.0 °F 70% 29.88 in 10.0 mi SW 4.6 mph - N/A   Overcast